1534528801.25,54412,22.06,74444.3,7.53,6.51,6.43,0,*79
1534528802.51,54413,22.06,74442.8,7.53,6.51,6.53,0,*79
1534528803.76,54414,22.06,74448.8,7.53,6.53,6.43,0,*7D
1534528805.03,54415,22.06,74444.0,7.53,6.51,6.51,0,*7D
1534528806.27,54416,22.06,74442.5,7.55,6.43,6.43,0,*78
1534528807.5,54417,22.06,74440.8,7.51,6.39,6.39,0,*7D
1534528808.77,54418,22.06,74444.3,7.53,6.51,6.43,0,*73
1534528810.03,54419,22.06,74446.0,7.53,6.43,6.43,0,*71
1534528811.3,54420,22.06,74442.3,7.53,6.43,6.43,0,*7B
1534528812.53,54421,22.06,74442.5,7.55,6.43,6.51,0,*7F
1534528813.77,54422,22.06,74444.3,7.55,6.43,6.39,0,*72
1534528815.0,54423,22.06,74442.3,7.55,6.43,6.39,0,*73
1534528816.24,54424,22.06,74442.8,7.53,6.39,6.33,0,*75
1534528817.46,54425,22.06,74442.8,7.53,6.33,6.33,0,*7E
1534528818.72,54426,22.06,74444.5,7.53,6.39,6.39,0,*7D
1534528819.98,54427,22.06,74442.3,7.53,6.43,6.39,0,*71
1534528821.24,54428,22.06,74446.5,7.53,6.43,6.43,0,*73
1534528822.51,54429,22.06,74442.8,7.53,6.43,6.43,0,*72
1534528823.77,54430,22.06,74446.0,7.53,6.51,6.43,0,*79
1534528825.01,54431,22.06,74440.0,7.51,6.47,6.39,0,*70
1534528826.27,54432,22.06,74442.0,7.53,6.51,6.51,0,*78
1534528827.54,54433,22.06,74444.0,7.53,6.51,6.43,0,*7A
1534528828.81,54434,22.06,74442.0,7.53,6.43,6.51,0,*7D
1534528830.04,54435,22.06,74444.0,7.55,6.43,6.43,0,*79
1534528831.28,54436,22.06,74442.0,7.55,6.51,6.43,0,*79
1534528832.52,54437,22.06,74446.3,7.55,6.43,6.43,0,*7B
1534528833.79,54438,22.06,74442.5,7.53,6.51,6.43,0,*71
1534528835.05,54439,22.06,74444.5,7.53,6.43,6.43,0,*73
1534528836.29,54440,22.06,74442.5,7.55,6.51,6.39,0,*75
1534528837.52,54441,22.06,74440.3,7.55,6.53,6.43,0,*7B
1534528838.76,54442,22.06,74442.0,7.55,6.43,6.43,0,*79
1534528840.0,54443,22.06,74442.3,7.55,6.43,6.43,0,*78
1534528841.24,54444,22.06,74442.0,7.55,6.51,6.43,0,*7C
1534528842.5,54445,22.06,74444.8,7.53,6.43,6.43,0,*78
1534528843.71,54446,22.06,74444.0,7.57,6.25,6.25,0,*7F
1534528844.9,54447,22.06,74442.8,7.55,6.33,6.29,0,*77
1534528846.11,54448,22.06,74440.8,7.55,6.33,6.39,0,*79
1534528847.35,54449,22.06,74444.3,7.55,6.43,6.43,0,*72
1534528848.59,54450,22.06,74444.3,7.55,6.43,6.43,0,*7A
1534528849.82,54451,22.06,74444.3,7.55,6.43,6.43,0,*7B
1534528851.06,54452,22.06,74444.5,7.55,6.51,6.39,0,*76
1534528852.3,54453,22.06,74442.8,7.55,6.51,6.43,0,*7A
1534528853.54,54454,22.06,74440.3,7.55,6.51,6.43,0,*7D
1534528854.78,54455,22.06,74442.0,7.55,6.51,6.51,0,*7F
1534528856.04,54456,22.06,74446.3,7.57,6.47,6.43,0,*7A
1534528857.28,54457,22.06,74442.0,7.55,6.43,6.43,0,*7D
1534528858.53,54458,22.06,74446.8,7.57,6.53,6.47,0,*75
1534528859.77,54459,22.06,74444.3,7.55,6.47,6.43,0,*77
1534528861.01,54460,22.06,74442.8,7.55,6.51,6.39,0,*77
1534528862.25,54461,22.06,74440.5,7.57,6.53,6.53,0,*7A
1534528863.5,54462,22.06,74440.8,7.57,6.65,6.57,0,*78
1534528864.73,54463,22.06,74440.3,7.55,6.61,6.61,0,*7A
1534528865.97,54464,22.06,74442.3,7.57,6.69,6.61,0,*77
1534528867.22,54465,22.06,74440.5,7.57,6.69,6.65,0,*72
1534528868.43,54466,22.06,74442.3,7.57,6.75,6.57,0,*7D
1534528869.67,54467,22.06,74442.0,7.57,6.69,6.57,0,*71
1534528870.9,54468,22.06,74442.8,7.55,6.65,6.61,0,*75
1534528872.14,54469,22.06,74442.8,7.57,6.69,6.57,0,*7F
1534528873.4,54470,22.06,74444.5,7.57,6.57,6.47,0,*7B
1534528874.63,54471,22.06,74446.3,7.55,6.61,6.53,0,*78
1534528875.87,54472,22.06,74442.3,7.57,6.69,6.53,0,*71
1534528877.12,54473,22.06,74440.5,7.57,6.65,6.53,0,*7C
1534528878.36,54474,22.06,74440.3,7.57,6.69,6.53,0,*77
1534528879.62,54475,22.06,74444.3,7.57,6.65,6.47,0,*7F
1534528880.88,54476,22.06,74440.0,7.57,6.57,6.47,0,*7D
1534528882.11,54477,22.06,74442.0,7.59,6.69,6.51,0,*78
1534528883.35,54478,22.06,74440.3,7.57,6.69,6.53,0,*7B
1534528884.58,54479,22.06,74440.5,7.59,6.73,6.61,0,*7E
1534528885.79,54480,22.06,74442.8,7.59,6.69,6.57,0,*76
1534528887.02,54481,22.06,74446.0,7.59,6.57,6.47,0,*7B
1534528888.25,54482,22.06,74440.5,7.59,6.69,6.47,0,*75
1534528889.48,54483,22.06,74440.5,7.59,6.69,6.51,0,*73
1534528890.71,54484,22.06,74440.3,7.59,6.61,6.51,0,*7C
1534528891.93,54485,22.06,74444.5,7.59,6.69,6.57,0,*73
1534528893.15,54486,22.06,74440.5,7.59,6.73,6.57,0,*7B
1534528894.34,54487,22.06,74442.0,7.59,6.79,6.57,0,*70
1534528895.58,54488,22.06,74442.3,7.59,6.73,6.51,0,*73
1534528896.81,54489,22.06,74444.5,7.59,6.73,6.51,0,*72
1534528898.04,54490,22.06,74440.8,7.59,6.73,6.39,0,*74
1534528899.27,54491,22.06,74444.0,7.59,6.69,6.47,0,*77
1534528900.53,54492,22.06,74446.3,7.61,6.61,6.47,0,*77
1534528901.75,54493,22.06,74442.8,7.59,6.69,6.39,0,*7C
1534528902.98,54494,22.06,74446.8,7.61,6.73,6.29,0,*7A
1534528904.24,54495,22.06,74444.0,7.61,6.51,6.13,0,*72
1534528905.47,54496,22.06,74442.8,7.61,6.57,6.11,0,*75
1534528906.7,54497,22.06,74446.8,7.59,6.39,5.77,0,*74
1534528907.94,54498,22.06,74446.5,7.61,6.35,5.67,0,*7D
1534528909.18,54499,22.06,74446.8,7.61,6.47,5.59,0,*74
1534528910.41,54500,22.06,74446.0,7.61,6.47,5.45,0,*78
1534528911.66,54501,22.06,74446.5,7.61,6.35,5.33,0,*7D
1534528912.84,54502,22.06,74446.0,7.59,6.29,5.29,0,*73
1534528914.06,54503,22.06,74444.3,7.61,6.29,5.19,0,*7A
1534528915.31,54504,22.06,74448.3,7.61,6.29,5.01,0,*74
1534528916.54,54505,22.06,74444.8,7.61,6.13,4.89,0,*7D
1534528917.77,54506,22.06,74444.5,7.59,5.89,4.59,0,*78
1534528918.99,54507,22.06,74444.5,7.61,5.77,4.53,0,*79
1534528920.2,54508,22.06,74446.3,7.61,5.67,4.49,0,*7C
1534528921.4,54509,22.06,74444.5,7.61,5.67,4.49,0,*7D
1534528922.61,54510,22.06,74446.3,7.61,5.59,4.41,0,*70
1534528923.78,54511,22.06,74448.0,7.59,5.59,4.53,0,*79
1534528924.96,54512,22.06,74440.8,7.59,5.33,4.27,0,*75
1534528926.15,54513,22.06,74446.3,7.61,5.33,4.27,0,*7F
1534528927.33,54514,22.06,74446.0,7.59,5.23,4.19,0,*7F
1534528928.5,54515,22.06,74444.8,7.59,5.07,4.07,0,*77
1534528929.71,54516,22.06,74446.0,7.59,5.01,4.15,0,*71
1534528930.96,54517,22.06,74446.3,7.61,4.97,4.05,0,*74
1534528932.19,54518,22.06,74442.3,7.59,5.01,3.97,0,*72
1534528933.45,54519,22.06,74446.0,7.61,4.97,3.97,0,*76
1534528934.68,54520,22.06,74444.3,7.61,4.97,4.07,0,*72
1534528935.91,54521,22.06,74444.5,7.61,5.01,4.27,0,*7F
1534528937.14,54522,22.06,74446.5,7.61,5.01,4.49,0,*74
1534528938.34,54523,22.06,74442.3,7.61,5.11,4.85,0,*74
1534528939.52,54524,22.06,74440.8,7.59,5.19,4.85,0,*70
1534528940.74,54525,22.06,74446.0,7.61,5.23,5.19,0,*77
1534528941.9,54526,22.06,74446.3,7.59,5.45,5.41,0,*72
1534528943.11,54527,22.06,74446.8,7.59,5.59,5.55,0,*7B
1534528944.28,54528,22.06,74446.8,7.59,5.59,5.59,0,*78
1534528945.47,54529,22.06,74444.5,7.59,5.71,5.59,0,*73
1534528946.69,54530,22.06,74446.3,7.61,5.77,5.67,0,*7B
1534528947.94,54531,22.06,74442.0,7.61,5.81,5.77,0,*72
1534528949.2,54532,22.06,74440.3,7.61,5.89,5.89,0,*78
1534528950.46,54533,22.06,74442.8,7.61,5.93,5.93,0,*79
1534528951.68,54534,22.06,74444.3,7.61,6.03,6.03,0,*7E
1534528952.89,54535,22.06,74442.3,7.61,6.03,6.11,0,*7C
1534528954.12,54536,22.06,74442.0,7.61,6.13,6.11,0,*7E
1534528955.35,54537,22.06,74444.3,7.59,6.17,6.13,0,*72
1534528956.58,54538,22.06,74442.3,7.61,6.25,6.13,0,*77
1534528957.82,54539,22.06,74442.0,7.61,6.25,6.17,0,*72
1534528959.03,54540,22.06,74442.5,7.61,6.25,6.11,0,*7A
1534528960.24,54541,22.06,74446.0,7.59,6.25,6.17,0,*76
1534528961.48,54542,22.06,74442.8,7.61,6.35,6.25,0,*7E
1534528962.71,54543,22.06,74444.0,7.61,6.29,6.17,0,*73
1534528963.95,54544,22.06,74448.0,7.61,6.29,6.17,0,*74
1534528965.16,54545,22.06,74444.8,7.59,6.35,6.25,0,*72
1534528966.37,54546,22.06,74446.5,7.61,6.29,6.25,0,*77
1534528967.58,54547,22.06,74444.5,7.61,6.29,6.25,0,*76
1534528968.81,54548,22.06,74446.3,7.61,6.39,6.25,0,*78
1534528970.05,54549,22.06,74446.0,7.61,6.35,6.25,0,*75
1534528971.29,54550,22.06,74444.3,7.61,6.35,6.29,0,*71
1534528972.52,54551,22.06,74446.8,7.61,6.39,6.29,0,*7C
1534528973.72,54552,22.06,74442.3,7.59,6.39,6.29,0,*74
1534528974.92,54553,22.06,74446.3,7.59,6.39,6.29,0,*75
1534528976.18,54554,22.06,74444.5,7.61,6.39,6.35,0,*74
1534528977.43,54555,22.06,74444.5,7.61,6.47,6.39,0,*70
1534528978.7,54556,22.06,74444.5,7.61,6.51,6.39,0,*74
1534528979.9,54557,22.06,74446.0,7.63,6.53,6.33,0,*7F
1534528981.16,54558,22.06,74446.0,7.61,6.57,6.35,0,*70
1534528982.41,54559,22.06,74442.0,7.61,6.57,6.39,0,*7D
1534528983.67,54560,22.06,74446.8,7.61,6.57,6.47,0,*7E
1534528984.93,54561,22.06,74442.5,7.61,6.61,6.47,0,*7A
1534528986.19,54562,22.06,74444.5,7.61,6.61,6.51,0,*7E
1534528987.45,54563,22.06,74444.8,7.61,6.61,6.51,0,*7F
1534528988.69,54564,22.06,74442.5,7.61,6.61,6.57,0,*7E
1534528989.95,54565,22.06,74444.0,7.61,6.61,6.51,0,*79
1534528991.2,54566,22.06,74442.0,7.61,6.69,6.61,0,*71
1534528992.46,54567,22.06,74446.3,7.61,6.73,6.51,0,*78
1534528993.68,54568,22.06,74442.0,7.63,6.73,6.61,0,*76
1534528994.87,54569,22.06,74442.8,7.63,6.75,6.73,0,*72
1534528996.07,54570,22.06,74442.8,7.63,6.75,6.65,0,*7D
1534528997.29,54571,22.06,74444.0,7.65,6.83,6.65,0,*73
1534528998.52,54572,22.06,74444.0,7.63,6.73,6.53,0,*7C
1534528999.73,54573,22.06,74446.0,7.65,6.75,6.61,0,*7C
1534529000.96,54574,22.06,74444.3,7.63,6.61,6.51,0,*7B
1534529002.21,54575,22.06,74446.0,7.65,6.53,6.43,0,*7E
1534529003.44,54576,22.06,74442.5,7.63,6.61,6.51,0,*79
1534529004.67,54577,22.06,74444.0,7.63,6.61,6.43,0,*7B
1534529005.88,54578,22.06,74444.0,7.63,6.51,6.33,0,*70
1534529007.12,54579,22.06,74446.3,7.65,6.43,6.33,0,*74
1534529008.34,54580,22.06,74444.5,7.63,6.61,6.43,0,*73
1534529009.57,54581,22.06,74446.3,7.63,6.53,6.51,0,*70
1534529010.83,54582,22.06,74446.0,7.61,6.61,6.51,0,*70
1534529012.09,54583,22.06,74446.3,7.61,6.61,6.51,0,*71
1534529013.34,54584,22.06,74446.8,7.61,6.61,6.51,0,*76
1534529014.6,54585,22.06,74444.0,7.61,6.61,6.51,0,*77
1534529015.86,54586,22.06,74446.5,7.61,6.61,6.47,0,*73
1534529017.09,54587,22.06,74446.0,7.63,6.65,6.43,0,*70
1534529018.32,54588,22.06,74444.5,7.63,6.61,6.43,0,*7B
1534529019.55,54589,22.06,74446.3,7.63,6.61,6.51,0,*79
1534529020.78,54590,22.06,74446.0,7.63,6.65,6.51,0,*75
1534529022.01,54591,22.06,74446.0,7.63,6.65,6.51,0,*74
1534529023.27,54592,22.06,74446.8,7.61,6.69,6.51,0,*79
1534529024.5,54593,22.06,74444.5,7.63,6.61,6.51,0,*72
1534529025.73,54594,22.06,74444.3,7.63,6.65,6.51,0,*71
1534529026.96,54595,22.06,74446.0,7.63,6.61,6.43,0,*77
1534529028.18,54596,22.06,74444.0,7.63,6.61,6.43,0,*74
1534529029.41,54597,22.06,74446.5,7.63,6.61,6.43,0,*75
1534529030.67,54598,22.06,74444.5,7.65,6.61,6.51,0,*7F
1534529031.92,54599,22.06,74442.3,7.65,6.61,6.43,0,*7D
1534529033.15,54600,22.06,74444.8,7.63,6.61,6.51,0,*7B
1534529034.4,54601,22.06,74444.8,7.65,6.61,6.43,0,*7F
1534529035.66,54602,22.06,74446.3,7.65,6.61,6.43,0,*7C
1534529036.88,54603,22.06,74444.0,7.63,6.61,6.39,0,*76
1534529038.13,54604,22.06,74446.5,7.65,6.61,6.39,0,*77
1534529039.36,54605,22.06,74442.8,7.65,6.53,6.33,0,*7D
1534529040.56,54606,22.06,74444.3,7.63,6.61,6.33,0,*79
1534529041.76,54607,22.06,74444.3,7.63,6.53,6.29,0,*72
1534529043.01,54608,22.06,74446.5,7.65,6.53,6.17,0,*76
1534529044.24,54609,22.06,74446.8,7.65,6.51,6.21,0,*70
1534529045.47,54610,22.06,74446.3,7.65,6.43,6.07,0,*7F
1534529046.73,54611,22.06,74448.8,7.65,6.51,6.13,0,*78
1534529047.98,54612,22.06,74446.5,7.65,6.43,6.13,0,*78
1534529049.21,54613,22.06,74444.5,7.65,6.43,5.95,0,*74
1534529050.47,54614,22.06,74444.0,7.65,6.43,5.85,0,*72
1534529051.68,54615,22.06,74448.3,7.65,6.33,5.71,0,*7F
1534529052.89,54616,22.0,74444.8,7.65,6.29,5.71,0,*77
1534529054.12,54617,22.06,74448.3,7.65,6.13,5.33,0,*79
1534529055.31,54618,22.06,74446.5,7.63,6.03,5.15,0,*75
1534529056.54,54619,22.06,74446.3,7.65,5.95,4.93,0,*71
1534529057.77,54620,22.06,74450.5,7.65,5.93,4.81,0,*7E
1534529059.0,54621,22.06,74448.0,7.65,5.73,4.41,0,*7D
1534529060.21,54622,22.06,74450.3,7.65,5.63,4.07,0,*7D
1534529061.38,54623,22.06,74446.8,7.63,5.37,3.81,0,*72
1534529062.59,54624,22.06,74450.5,7.65,5.27,3.85,0,*76
1534529063.82,54625,22.06,74446.3,7.63,4.79,3.71,0,*70
1534529065.08,54626,22.06,74446.5,7.65,4.71,3.75,0,*79
1534529066.3,54627,22.06,74448.5,7.63,4.79,3.75,0,*76
1534529067.53,54628,22.06,74448.0,7.61,4.85,3.79,0,*74
1534529068.76,54629,22.06,74446.8,7.63,4.93,3.71,0,*78
1534529069.96,54630,22.0,74444.0,7.63,4.93,3.59,0,*7A
1534529071.13,54631,22.06,74444.5,7.63,4.81,3.25,0,*73
1534529072.34,54632,22.06,74444.3,7.63,4.71,2.99,0,*79
1534529073.52,54633,22.06,74450.0,7.63,4.53,2.65,0,*7B
1534529074.74,54634,22.06,74444.0,7.63,4.31,2.05,0,*7E
1534529075.96,54635,22.0,74444.8,7.63,3.97,1.43,0,*75
1534529077.16,54636,22.06,74446.5,7.63,3.63,0.91,0,*43
1534529078.4,54637,22.06,74446.3,7.61,3.19,0.13,0,*47
1534529079.63,54638,22.06,74450.3,7.61,2.73,-0.29,0,*61
1534529080.86,54639,22.06,74448.8,7.61,2.39,-0.19,0,*6D
1534529082.09,54640,22.06,74444.5,7.61,2.25,-0.07,0,*51
1534529083.32,54641,22.06,74446.5,7.61,1.67,-0.53,0,*64
1534529084.58,54642,22.06,74448.0,7.61,1.17,-0.89,0,*67
1534529085.77,54643,22.06,74446.0,7.59,0.71,-0.81,0,*54
1534529086.97,54644,22.06,74446.8,7.59,0.47,-0.77,0,*5F
1534529088.17,54645,22.06,74444.0,7.61,0.09,-0.77,0,*6F
1534529089.37,54646,22.06,74446.0,7.61,0.05,-0.61,0,*67
1534529090.57,54647,22.06,74446.8,7.59,-0.27,-0.29,0,*7C
1534529091.74,54648,22.06,74448.8,7.59,-0.41,0.05,0,*60
1534529092.97,54649,22.06,74448.0,7.61,-0.65,0.47,0,*5A
1534529094.16,54650,22.06,74450.0,7.59,-0.61,0.79,0,*50
1534529095.37,54651,22.06,74450.3,7.59,-0.37,1.21,0,*6E
1534529096.59,54652,22.06,74444.5,7.59,-0.27,1.43,0,*68
1534529097.79,54653,22.06,74444.8,7.59,-0.65,1.33,0,*68
1534529099.0,54654,22.06,74448.0,7.59,-0.65,1.21,0,*6C
1534529100.2,54655,22.0,74446.3,7.59,-0.65,1.33,0,*6E
1534529101.43,54656,22.06,74448.5,7.59,-1.13,1.17,0,*5B
1534529102.67,54657,22.06,74446.0,7.59,-1.39,1.33,0,*54
1534529103.9,54658,22.06,74450.8,7.57,-1.79,1.51,0,*55
1534529105.11,54659,22.06,74448.3,7.55,-2.23,1.63,0,*5B
1534529106.35,54660,22.06,74446.8,7.55,-2.47,1.85,0,*5B
1534529107.58,54661,22.06,74446.5,7.55,-2.59,2.21,0,*58
1534529108.8,54662,22.06,74450.3,7.57,-2.79,2.21,0,*5B
1534529110.07,54663,22.06,74446.8,7.57,-3.59,1.85,0,*54
1534529111.31,54664,22.06,74448.3,7.55,-3.63,2.05,0,*53
1534529112.54,54665,22.06,74450.3,7.53,-3.23,2.55,0,*55
1534529113.75,54666,22.06,74450.3,7.51,-2.79,2.77,0,*5A
1534529114.99,54667,22.0,74446.8,7.53,-2.39,2.89,0,*5C
1534529116.22,54668,22.06,74446.3,7.53,-1.75,3.11,0,*58
1534529117.46,54669,22.06,74448.5,7.51,-1.01,3.41,0,*5D
1534529118.67,54670,22.06,74444.8,7.51,-0.19,3.71,0,*6E
1534529119.92,54671,22.06,74448.0,7.53,0.37,3.97,0,*44
1534529121.14,54672,22.06,74446.5,7.51,0.71,3.97,0,*47
1534529122.34,54673,22.06,74448.3,7.51,0.97,3.97,0,*4E
1534529123.54,54674,22.06,74446.5,7.51,1.43,4.07,0,*7F
1534529124.74,54675,22.06,74448.5,7.51,1.43,3.93,0,*74
1534529125.97,54676,22.06,74446.8,7.51,1.71,4.01,0,*7A
1534529127.18,54677,22.0,74446.3,7.51,2.27,4.31,0,*78
1534529128.39,54678,22.06,74448.8,7.51,2.65,4.63,0,*76
1534529129.6,54679,22.06,74448.3,7.51,2.99,4.75,0,*73
1534529130.83,54680,22.06,74446.3,7.51,3.15,4.67,0,*73
1534529132.06,54681,22.0,74446.3,7.51,3.33,4.63,0,*72
1534529133.29,54682,22.06,74446.5,7.51,3.45,4.67,0,*74
1534529134.5,54683,22.06,74448.0,7.51,3.79,4.85,0,*76
1534529135.69,54684,22.06,74448.3,7.51,3.93,5.19,0,*71
1534529136.9,54685,22.06,74448.0,7.51,4.05,5.07,0,*77
1534529138.09,54686,22.06,74448.5,7.51,4.07,5.11,0,*71
1534529139.27,54687,22.06,74448.0,7.51,4.41,5.33,0,*72
1534529140.53,54688,22.06,74448.8,7.53,4.67,5.51,0,*7F
1534529141.74,54689,22.06,74450.8,7.51,4.75,5.59,0,*77
1534529142.92,54690,22.06,74448.3,7.51,4.85,5.71,0,*7A
1534529144.13,54691,22.06,74444.3,7.51,4.97,5.67,0,*7F
1534529145.34,54692,22.06,74448.8,7.51,5.01,5.67,0,*72
1534529146.52,54693,22.06,74444.3,7.51,5.07,5.59,0,*78
1534529147.7,54694,22.06,74444.0,7.51,5.19,5.59,0,*70
1534529148.88,54695,22.06,74444.5,7.55,5.33,5.71,0,*77
1534529150.06,54696,22.06,74450.0,7.51,5.37,5.67,0,*73
1534529151.24,54697,22.06,74448.0,7.51,5.45,5.67,0,*77
1534529152.47,54698,22.06,74450.5,7.53,5.51,5.59,0,*72
1534529153.64,54699,22.06,74448.3,7.51,5.29,5.37,0,*76
1534529154.81,54700,22.06,74446.5,7.51,5.29,5.33,0,*73
1534529155.99,54701,22.06,74448.3,7.51,5.33,5.45,0,*78
1534529157.17,54702,22.06,74450.5,7.51,5.33,5.45,0,*7B
1534529158.4,54703,22.06,74450.5,7.53,5.49,5.51,0,*70
1534529159.57,54704,22.06,74448.3,7.51,5.33,5.41,0,*79
1534529160.75,54705,22.06,74448.5,7.51,5.23,5.37,0,*78
1534529161.93,54706,22.0,74444.0,7.51,5.11,5.33,0,*7E
1534529163.13,54707,22.06,74448.5,7.53,5.15,5.37,0,*7D
1534529164.34,54708,22.06,74448.8,7.51,5.01,5.37,0,*75
1534529165.52,54709,22.06,74448.5,7.51,5.11,5.49,0,*7C
1534529166.75,54710,22.0,74446.5,7.53,5.15,5.51,0,*7B
1534529167.93,54711,22.06,74446.3,7.51,4.85,5.19,0,*7C
1534529169.14,54712,22.06,74448.8,7.51,4.97,5.33,0,*74
1534529170.34,54713,22.06,74446.5,7.51,5.01,5.37,0,*7F
1534529171.52,54714,22.06,74448.8,7.51,5.11,5.49,0,*70
1534529172.7,54715,22.06,74444.8,7.51,5.19,5.49,0,*79
1534529173.93,54716,22.0,74446.5,7.53,5.23,5.51,0,*78
1534529175.16,54717,22.06,74448.0,7.53,5.27,5.59,0,*75
1534529176.37,54718,22.06,74448.8,7.53,5.33,5.63,0,*76
1534529177.58,54719,22.06,74448.3,7.51,5.23,5.55,0,*71
1534529178.75,54720,22.06,74448.8,7.51,5.37,5.59,0,*72
1534529179.95,54721,22.06,74448.5,7.51,5.49,5.77,0,*76
1534529181.15,54722,22.06,74448.8,7.51,5.49,5.81,0,*7C
1534529182.37,54723,22.06,74450.0,7.51,5.55,5.81,0,*70
1534529183.57,54724,22.06,74450.3,7.51,5.59,5.93,0,*78
1534529184.77,54725,22.06,74450.0,7.51,5.67,5.89,0,*7F
1534529185.99,54726,22.06,74448.8,7.51,5.77,5.93,0,*76
1534529187.25,54727,22.06,74448.5,7.53,5.85,5.93,0,*78
1534529188.48,54728,22.06,74448.8,7.53,5.85,5.95,0,*71
1534529189.7,54729,22.06,74450.3,7.51,5.77,5.89,0,*72
1534529190.92,54730,22.06,74448.3,7.51,5.77,5.81,0,*72
1534529192.12,54731,22.06,74450.5,7.51,5.67,5.77,0,*7B
1534529193.32,54732,22.06,74448.0,7.51,5.71,5.81,0,*76
1534529194.5,54733,22.06,74450.3,7.51,5.71,5.71,0,*78
1534529195.68,54734,22.0,74446.8,7.51,5.71,5.71,0,*7F
1534529196.9,54735,22.06,74446.8,7.51,5.81,5.81,0,*7E
1534529198.12,54736,22.06,74450.5,7.51,5.77,5.77,0,*7D
1534529199.31,54737,22.0,74444.5,7.51,5.67,5.67,0,*7C
1534529200.48,54738,22.06,74448.3,7.51,5.71,5.71,0,*73
1534529201.72,54739,22.0,74444.0,7.53,5.73,5.71,0,*72
1534529202.9,54740,22.0,74444.0,7.51,5.71,5.71,0,*7C
1534529204.1,54741,22.06,74448.0,7.49,5.63,5.63,0,*74
1534529205.35,54742,22.06,74448.5,7.49,5.51,5.51,0,*77
1534529206.6,54743,22.06,74446.5,7.49,5.55,5.55,0,*76
1534529207.83,54744,22.06,74448.0,7.49,5.55,5.63,0,*74
1534529209.01,54745,22.0,74444.8,7.51,5.67,5.67,0,*79
1534529210.19,54746,22.06,74446.8,7.51,5.59,5.71,0,*70
1534529211.37,54747,22.06,74450.3,7.51,5.71,5.71,0,*7B
1534529212.55,54748,22.06,74450.3,7.51,5.67,5.71,0,*73
1534529213.75,54749,22.0,74444.5,7.51,5.71,5.81,0,*7A
1534529215.0,54750,22.06,74450.0,7.49,5.51,5.55,0,*70
1534529216.18,54751,22.06,74448.8,7.51,5.59,5.71,0,*76
1534529217.43,54752,22.06,74450.0,7.49,5.73,5.77,0,*72
1534529218.67,54753,22.06,74448.0,7.47,5.77,5.85,0,*74
1534529219.89,54754,22.06,74450.0,7.51,5.77,5.89,0,*78
1534529221.12,54755,22.0,74446.8,7.49,5.67,5.77,0,*70
1534529222.34,54756,22.06,74448.0,7.49,5.67,5.77,0,*73
1534529223.57,54757,22.0,74444.5,7.49,5.63,5.73,0,*72
1534529224.81,54758,22.06,74448.3,7.49,5.55,5.77,0,*7C
1534529226.04,54759,22.0,74446.3,7.49,5.67,5.77,0,*7C
1534529227.27,54760,22.06,74448.0,7.47,5.63,5.89,0,*7D
1534529228.46,54761,22.06,74446.5,7.51,5.71,5.93,0,*73
1534529229.7,54762,22.0,74444.5,7.49,5.67,5.85,0,*79
1534529230.93,54763,22.0,74444.0,7.49,5.67,5.85,0,*78
1534529232.14,54764,22.0,74446.3,7.49,5.63,5.67,0,*77
1534529233.36,54765,22.06,74448.8,7.47,5.55,5.67,0,*7D
1534529234.61,54766,22.06,74450.5,7.49,5.51,5.51,0,*71
1534529235.83,54767,22.06,74448.3,7.49,5.45,5.51,0,*75
1534529237.06,54768,22.0,74446.8,7.49,5.55,5.67,0,*7E
1534529238.28,54769,22.06,74448.0,7.47,5.67,5.73,0,*75
1534529239.51,54770,22.06,74450.5,7.47,5.67,5.85,0,*74
1534529240.74,54771,22.06,74450.3,7.49,5.67,5.85,0,*7B
1534529241.96,54772,22.06,74452.0,7.47,5.63,5.73,0,*7B
1534529243.19,54773,22.06,74448.3,7.49,5.45,5.51,0,*70
1534529244.4,54774,22.0,74444.5,7.47,5.45,5.55,0,*7D
1534529245.63,54775,22.06,74450.0,7.47,5.41,5.51,0,*7C
1534529246.85,54776,22.06,74450.5,7.47,5.33,5.51,0,*7A
1534529248.08,54777,22.06,74448.8,7.47,5.33,5.51,0,*7B
1534529249.27,54778,22.0,74448.8,7.43,5.29,5.49,0,*72
1534529250.46,54779,22.0,74444.5,7.43,5.29,5.49,0,*73
1534529251.68,54780,22.06,74452.0,7.43,5.29,5.51,0,*7C
1534529252.88,54781,22.0,74446.3,7.43,5.41,5.59,0,*7B
1534529254.11,54782,22.06,74448.8,7.49,5.51,5.63,0,*7A
1534529255.29,54783,22.06,74448.0,7.41,5.41,5.59,0,*7B
1534529256.48,54784,22.06,74450.3,7.43,5.49,5.63,0,*7F
1534529257.7,54785,22.06,74450.0,7.41,5.51,5.73,0,*74
1534529258.92,54786,22.06,74448.8,7.43,5.63,5.73,0,*74
1534529260.14,54787,22.0,74446.8,7.43,5.71,5.73,0,*76
1534529261.36,54788,22.06,74448.3,7.43,5.71,5.73,0,*79
1534529262.58,54789,22.06,74448.5,7.41,5.73,5.81,0,*75
1534529263.77,54790,22.06,74448.8,7.41,5.71,5.81,0,*7F
1534529264.97,54791,22.06,74448.8,7.41,5.63,5.73,0,*70
1534529266.22,54792,22.06,74448.0,7.43,5.73,5.81,0,*7D
1534529267.44,54793,22.06,74450.3,7.41,5.81,5.85,0,*77
1534529268.66,54794,22.0,74444.3,7.41,5.81,5.85,0,*70
1534529269.91,54795,22.0,74446.3,7.43,5.85,5.85,0,*77
1534529271.13,54796,22.0,74446.3,7.41,5.81,5.81,0,*76
1534529272.38,54797,22.06,74448.0,7.43,5.73,5.81,0,*78
1534529273.6,54798,22.06,74448.3,7.41,5.81,5.73,0,*75
1534529274.78,54799,22.06,74448.8,7.41,5.71,5.71,0,*79
1534529276.0,54800,22.06,74450.3,7.41,5.73,5.81,0,*7B
1534529277.22,54801,22.0,74444.3,7.41,5.81,5.81,0,*77
1534529278.44,54802,22.0,74446.3,7.41,5.85,5.85,0,*74
1534529279.69,54803,22.0,74446.3,7.43,5.81,5.81,0,*77
1534529280.91,54804,22.0,74446.3,7.41,5.73,5.73,0,*72
1534529282.13,54805,22.06,74448.3,7.41,5.85,5.81,0,*77
1534529283.33,54806,22.06,74448.0,7.43,5.63,5.71,0,*71
1534529284.55,54807,22.0,74444.8,7.41,5.73,5.73,0,*71
1534529285.77,54808,22.0,74446.3,7.41,5.85,5.85,0,*7E
1534529286.99,54809,22.0,74446.8,7.41,5.73,5.73,0,*7F
1534529288.2,54810,22.06,74446.5,7.43,5.63,5.71,0,*76
1534529289.42,54811,22.06,74450.3,7.41,5.73,5.81,0,*7B
1534529290.64,54812,22.0,74448.3,7.41,5.85,5.93,0,*72
1534529291.86,54813,22.0,74446.8,7.41,5.81,5.93,0,*77
1534529293.08,54814,22.06,74450.0,7.41,5.81,5.85,0,*77
1534529294.28,54815,22.06,74448.8,7.41,5.85,5.95,0,*73
1534529295.53,54816,22.06,74446.3,7.39,5.81,5.89,0,*76
1534529296.73,54817,22.06,74448.8,7.41,5.81,5.95,0,*75
1534529297.93,54818,22.06,74450.8,7.41,5.73,5.95,0,*77
1534529299.13,54819,22.0,74446.3,7.41,5.71,5.93,0,*72
1534529300.35,54820,22.06,74450.5,7.41,5.73,5.93,0,*7A
1534529301.52,54821,22.06,74448.0,7.41,5.71,5.95,0,*7F
1534529302.72,54822,22.06,74448.3,7.41,5.81,5.99,0,*7F
1534529303.92,54823,22.06,74448.8,7.41,5.85,6.07,0,*7E
1534529305.09,54824,22.06,74450.5,7.41,5.95,6.07,0,*78
1534529306.27,54825,22.06,74448.8,7.41,5.95,5.99,0,*7D
1534529307.49,54826,22.06,74450.0,7.43,5.93,6.07,0,*7E
1534529308.67,54827,22.06,74448.3,7.41,5.95,6.07,0,*7B
1534529309.84,54828,22.06,74450.5,7.41,5.95,6.07,0,*74
1534529311.01,54829,22.06,74450.8,7.41,5.95,6.07,0,*75
1534529312.22,54830,22.06,74446.8,7.41,5.93,5.99,0,*7F
1534529313.4,54831,22.06,74448.3,7.41,5.95,5.99,0,*78
1534529314.61,54832,22.06,74448.3,7.39,5.95,6.03,0,*74
1534529315.82,54833,22.0,74448.8,7.39,5.95,6.03,0,*75
1534529317.06,54834,22.06,74450.8,7.39,5.93,6.03,0,*74
1534529318.27,54835,22.0,74446.5,7.39,5.95,6.03,0,*73
1534529319.45,54836,22.0,74448.0,7.37,5.99,5.99,0,*72
1534529320.65,54837,22.0,74448.3,7.43,6.07,6.11,0,*77
1534529321.85,54838,22.0,74446.3,7.43,6.07,6.11,0,*78
1534529323.04,54839,22.06,74450.3,7.41,6.07,6.17,0,*7D
1534529324.24,54840,22.06,74450.3,7.41,6.17,6.11,0,*74
1534529325.42,54841,22.06,74450.0,7.41,6.11,6.11,0,*73
1534529326.62,54842,22.06,74450.5,7.41,6.11,6.17,0,*76
1534529327.82,54843,22.06,74450.0,7.43,6.11,6.11,0,*73
1534529329.05,54844,22.06,74448.8,7.41,5.93,5.85,0,*71
1534529330.27,54845,22.06,74450.0,7.41,5.81,5.85,0,*73
1534529331.47,54846,22.06,74448.0,7.41,5.85,5.95,0,*75
1534529332.7,54847,22.0,74446.5,7.39,5.93,5.95,0,*7C
1534529333.92,54848,22.06,74448.5,7.39,6.03,6.03,0,*75